Flag Weather past 2 weeks in Tel Aviv, Israel

Now
57 °F

Passing clouds.


Feels Like: 55 °F
Forecast: 58 / 67 °F
Wind: 8 mph from Southeast

Location: Ben Gurion International Airport

Current Time: Nov 23, 2014 at 10:10:11 PM

Latest Report: Nov 23, 2014 at 9:20 PM


Visibility: N/A

Pressure: 29.98 "Hg

Humidity: 88%

Dew point: 54 °F

Location of Tel AvivLocation

Historic Weather in Tel Aviv — Graph

°F

Tel Aviv temperature yesterday

Maximum temperature yesterday: 72 °F (at 9:20 AM)
Minimum temperature yesterday: 64 °F (at 8:50 PM)
Average temperature yesterday: 67 °F

Past Weeks' High & Low Weather Summary

 TemperatureHumidityPressure
High86 °F (Nov 9, 11:20 AM)94% (Nov 16, 5:50 AM)30.18 "Hg (Nov 16, 5:50 AM)
Low54 °F (Nov 19, 6:20 AM)17% (Nov 8, 8:50 PM)29.86 "Hg (Nov 14, 1:20 PM)
Average67 °F66%30.00 "Hg
* Reported Nov 8 8:20 PM — Nov 23 8:50 PM, Tel Aviv, Weather by CustomWeather, © 2014

Note: Actual official high and low records may vary slightly from our data, if they occured in-between our weather recording intervals... More about our weather records

Advertising

Tel Aviv weather history for previous 24 hours

 ConditionsComfort  
Time TempWeatherWind HumidityBarometerVisibility
8:50 PM
Nov 23
57 °FLight rain. Passing clouds.6 mph88%29.98 "HgN/A
8:20 PM57 °FPassing clouds.10 mph88%29.98 "HgN/A
7:50 PM57 °FPassing clouds.12 mph88%29.98 "HgN/A
7:20 PM59 °FPassing clouds.12 mph82%29.98 "HgN/A
6:50 PM59 °FLight rain. Passing clouds.9 mph82%29.98 "HgN/A
6:20 PM59 °FPassing clouds.12 mph82%29.98 "HgN/A
5:50 PM59 °FRain. Passing clouds.12 mph82%29.98 "HgN/A
5:20 PM61 °FPassing clouds.3 mph77%29.98 "HgN/A
4:50 PM61 °FPassing clouds.8 mph83%29.95 "HgN/A
4:20 PM63 °FPartly sunny.6 mph77%29.95 "HgN/A
3:50 PM63 °FScattered clouds.13 mph77%29.95 "HgN/A
3:20 PM63 °FScattered clouds.14 mph83%29.95 "HgN/A
2:50 PM61 °FScattered clouds.9 mph83%29.98 "HgN/A
2:20 PM61 °FScattered clouds.12 mph83%29.98 "HgN/A
1:50 PM63 °FScattered clouds.8 mph77%29.98 "HgN/A
1:20 PM64 °FScattered clouds.10 mph73%29.98 "HgN/A
12:50 PM63 °FLight rain. Scattered clouds.9 mph77%29.98 "HgN/A
12:20 PM64 °FRain. Scattered clouds.12 mph68%29.98 "HgN/A
11:50 AM68 °FPassing clouds.6 mph60%29.98 "HgN/A
11:20 AM68 °FPassing clouds.5 mph64%30.01 "HgN/A
10:50 AM64 °FPassing clouds.5 mph78%30.01 "HgN/A
10:20 AM63 °FScattered clouds.7 mph73%30.04 "HgN/A
9:50 AM63 °FPassing clouds.9 mph73%30.04 "HgN/A
9:20 AM61 °FScattered clouds.6 mph77%30.04 "HgN/A
8:50 AM61 °FScattered clouds.8 mph77%30.04 "HgN/A
8:20 AM61 °FLight rain. Scattered clouds.6 mph72%30.04 "HgN/A
7:50 AM61 °FScattered clouds.7 mph72%30.01 "HgN/A
7:20 AM59 °FScattered clouds.9 mph72%30.01 "HgN/A
6:50 AM59 °FScattered clouds.12 mph72%30.01 "HgN/A
6:20 AM61 °FPassing clouds.7 mph68%30.01 "HgN/A
5:50 AM59 °FPassing clouds.5 mph77%30.01 "HgN/A
5:20 AM59 °FPassing clouds.3 mph77%30.01 "HgN/A
4:50 AM59 °FLight rain. Passing clouds.8 mph77%30.01 "HgN/A
4:20 AM61 °FPassing clouds.8 mph68%30.01 "HgN/A
3:50 AM61 °FPassing clouds.6 mph68%30.01 "HgN/A
3:20 AM61 °FPassing clouds.8 mph63%30.01 "HgN/A
2:50 AM61 °FPassing clouds.7 mph68%30.01 "HgN/A
2:20 AM61 °FLight rain. Passing clouds.7 mph68%30.01 "HgN/A
1:50 AM63 °FPassing clouds.5 mph59%30.01 "HgN/A
1:20 AM63 °FPassing clouds.3 mph59%30.01 "HgN/A
12:50 AM63 °FPassing clouds.5 mph59%30.01 "HgN/A
12:20 AM64 °FPassing clouds.7 mph56%30.01 "HgN/A
11:50 PM
Nov 22
64 °FPassing clouds.9 mph56%30.01 "HgN/A
11:20 PM64 °FPassing clouds.10 mph56%30.01 "HgN/A
10:50 PM64 °FPassing clouds.10 mph60%30.01 "HgN/A
10:20 PM64 °FPassing clouds.9 mph60%30.01 "HgN/A
Weather by CustomWeather, © 2014

See weather overviewHow to use our weather pages